sat.trackr.live / text

‹ back to catalog

GEESAT-4 06

NORAD 65124 · 2025-170F

PAYLOAD ACTIVE UNKNOWN

§ Identity

Operator
Country
PRC
Launch date
2025-08-08
Launch site
YSLA
Launch vehicle
Mass (kg)
RCS (m²)

External: N2YO · Heavens-Above · Gunter

§ Orbital elements

Epoch: 2026-05-25T04:19:14.180736Z

Period
97.04 min
Inclination
49.9849°
Eccentricity
0.0018636
Mean motion
14.83917387 rev/d
Perigee alt
603.9 km
Apogee alt
630.0 km
Semi-major
6,995.1 km
B*
1.9958e-4
RAAN
280.8093°
Arg perigee
311.3292°
Mean anomaly
48.6042°
Rev number
4,301

§ Raw data

GEESAT-4 061 65124U 25170F   26145.18002524  .00001450  00000+0  19958-3 0  99972 65124  49.9849 280.8093 0018636 311.3292  48.6042 14.83917387 43011

JSON: /api/v1/satellites/65124 · /tle

For live sub-satellite position, see the globe view (requires WebGL).

§ Visibility from observer

Set your observer location to see the next 7 days of passes ≥ 10°. The values pass through the URL so the page stays shareable.

No JS? Fill the form by hand. The geolocation button needs JavaScript.